Theta_e
298 291 290 290 292 295 296 296 297 298 298 298 298 298 296 296 297 300 301 303 305 301 299 300 301 301 302 304 305 309 314 315 316 315 312 314 316 319 322 324 329 330 333 340 343 342 343 342 342 343 343 342 342 343 342 342 342 343 340 341 340 341 344 343 342 342 341 340 342 345 344 341 343 343 347 345 347 347 347 348 348 348 348 349 347 346
296 290 291 294 295 296 297 298 298 298 298 297 297 297 296 297 295 300 300 303 305 300 299 301 301 301 303 304 305 310 314 313 315 313 311 313 316 318 322 325 328 332 336 339 340 340 341 340 341 342 341 341 339 340 342 341 342 342 342 342 341 343 343 344 344 342 342 343 341 340 340 342 341 340 342 342 344 346 346 346 345 346 345 348 348 347
290 288 292 295 297 298 297 298 298 296 296 297 296 296 296 297 299 301 302 303 304 301 299 301 299 300 303 304 305 307 311 315 315 314 312 313 315 317 321 326 329 333 331 336 338 339 338 339 340 340 341 340 341 341 341 343 342 342 342 342 342 343 342 342 343 344 342 344 344 344 341 341 339 345 345 343 346 346 346 344 343 344 346 344 345 346
287 290 294 297 298 296 296 297 297 296 296 295 296 295 294 298 296 293 300 302 303 301 299 301 299 300 303 305 305 307 309 313 316 315 314 314 315 317 321 325 329 332 332 334 336 337 338 339 338 339 339 340 340 340 341 342 342 342 342 343 342 342 343 342 344 344 345 344 344 345 343 346 346 344 346 346 345 342 340 340 342 343 344 342 342 342
288 293 298 297 297 296 294 296 296 294 292 295 297 295 295 297 298 297 298 301 302 302 302 301 299 298 301 301 302 306 310 315 316 316 314 314 317 321 324 326 330 332 332 332 335 337 336 337 337 337 338 341 339 339 340 341 341 340 343 344 343 343 343 344 344 344 343 343 341 345 345 344 341 341 342 340 338 339 339 339 339 340 341 341 341 341
290 295 297 295 295 295 294 294 295 295 292 293 296 297 297 299 300 299 301 299 296 296 299 299 292 293 300 301 301 304 306 310 315 315 313 313 316 319 319 322 331 335 333 335 335 336 336 336 337 338 338 338 339 340 341 342 342 342 341 341 343 343 344 344 344 344 342 341 340 339 337 335 335 335 335 336 335 336 336 337 339 339 340 340 338 338
291 295 294 293 294 293 294 293 296 296 293 292 293 299 299 300 300 299 298 297 292 291 297 300 292 290 299 299 301 303 304 306 313 314 313 313 315 317 320 325 329 330 330 335 337 336 336 336 336 337 337 338 338 340 343 343 343 342 342 342 342 342 342 344 343 342 342 340 341 339 338 338 338 336 338 340 340 338 336 335 336 336 338 337 336 336
292 292 293 293 293 292 292 291 295 296 293 291 298 299 299 299 298 298 298 297 295 299 300 299 297 293 293 298 302 304 303 304 310 313 314 314 316 317 322 325 330 331 330 330 335 336 336 337 336 335 337 337 338 341 341 342 343 342 340 342 343 342 341 337 342 341 341 341 341 341 340 337 336 339 337 339 338 338 334 334 334 336 334 334 333 333
291 290 291 291 291 291 290 294 297 297 294 294 299 300 298 298 298 299 298 297 297 296 292 296 298 293 294 300 303 303 300 302 307 311 313 314 316 320 323 326 331 332 333 332 335 335 336 336 336 336 336 338 339 341 340 338 337 337 339 342 342 341 337 336 339 341 341 341 340 339 339 334 334 337 336 335 334 333 335 333 332 333 332 332 331 330
292 292 293 293 291 289 293 296 297 297 293 297 300 301 300 299 299 300 298 296 296 294 290 294 297 291 292 300 300 302 301 300 305 311 313 314 316 319 323 326 324 327 330 333 336 336 337 337 337 338 338 338 340 340 338 331 332 336 337 339 338 338 335 339 341 341 340 340 340 339 338 336 334 335 334 333 332 332 332 330 329 329 329 328 328 328
292 297 297 293 291 294 295 297 298 298 298 300 299 298 297 297 296 299 298 297 295 288 291 296 297 294 289 296 299 298 299 302 306 311 313 314 315 317 320 321 323 327 329 332 334 336 338 339 338 337 337 337 339 340 336 332 333 336 337 338 338 339 337 340 340 340 339 338 340 339 339 336 335 334 332 331 330 329 330 328 326 326 327 329 327 327
291 292 292 294 297 297 298 295 299 299 300 298 295 294 294 293 296 295 295 297 288 287 293 297 297 296 288 294 300 304 305 305 308 309 311 312 314 317 319 320 322 327 330 332 333 336 337 336 336 337 336 336 336 336 335 334 334 335 337 337 339 339 339 340 341 341 340 340 340 341 339 337 334 334 332 331 328 328 329 328 325 326 327 327 327 326
288 288 292 293 298 296 295 293 294 297 297 296 295 293 289 286 287 284 289 285 286 286 294 297 298 294 292 298 301 305 306 308 310 311 313 313 314 317 319 321 320 324 330 332 332 335 335 335 333 332 334 336 334 334 334 335 336 336 337 337 337 337 339 339 341 340 340 339 339 340 339 338 336 335 334 332 330 330 329 328 325 324 324 325 324 325
286 291 290 291 295 297 297 289 290 290 294 293 291 290 287 284 282 280 285 288 289 293 297 296 299 293 297 299 304 305 308 310 312 314 315 314 315 317 318 320 319 324 330 331 332 333 335 335 334 334 333 334 334 334 334 334 335 337 337 336 337 337 339 339 340 340 338 339 339 339 338 336 335 334 334 332 331 332 331 329 325 325 325 324 324 325
279 280 286 290 287 296 296 294 293 292 293 293 296 293 290 289 285 280 285 281 285 289 294 299 294 291 293 296 304 306 311 313 314 314 314 315 317 318 319 315 319 326 331 332 332 332 334 335 335 334 334 334 334 334 334 333 334 336 337 337 336 336 338 338 340 339 339 338 338 338 338 337 336 335 333 332 333 330 326 326 326 326 326 325 325 325
283 283 289 293 294 296 294 297 298 296 294 295 296 297 293 291 295 287 289 290 290 290 290 293 292 297 298 306 307 307 312 314 314 313 314 314 316 316 315 318 321 326 329 332 332 332 333 336 336 335 335 334 334 334 334 333 335 336 337 337 336 336 337 338 339 339 339 338 339 339 338 335 335 334 333 331 330 331 328 327 327 327 326 325 325 327
285 282 291 293 295 295 296 298 297 298 286 292 294 290 293 300 297 291 291 297 294 291 288 295 295 298 303 305 307 306 309 313 312 311 311 314 314 315 315 320 323 327 330 331 331 332 334 335 336 335 335 335 335 334 334 334 335 336 336 336 336 336 337 337 338 338 339 339 338 338 337 335 334 333 331 328 328 329 328 327 326 324 323 324 324 324
283 283 292 291 289 295 299 299 299 299 299 295 289 293 299 302 301 295 287 289 289 285 287 294 291 294 294 292 305 304 306 310 311 310 312 315 315 313 316 318 321 325 330 333 333 333 335 336 335 335 335 335 335 335 334 334 335 337 336 337 336 335 336 337 338 338 338 337 336 336 335 334 333 332 331 329 329 328 325 325 323 322 321 322 322 323
290 281 288 292 292 295 298 299 296 299 300 295 294 302 293 288 288 294 291 284 284 283 287 292 294 295 296 297 302 302 304 307 309 310 311 312 313 315 315 319 324 327 328 331 332 333 333 334 335 334 335 335 336 335 335 334 334 335 336 336 335 335 337 337 337 338 337 337 336 335 335 334 332 332 330 329 328 327 324 323 322 321 322 323 323 321
290 282 286 294 292 294 295 295 287 291 298 300 300 297 300 297 293 291 291 294 292 285 286 289 292 289 299 301 303 303 305 308 309 309 309 311 314 312 315 322 322 322 325 326 332 332 333 334 335 335 335 334 334 334 334 334 333 334 336 334 335 337 336 335 337 337 336 336 335 334 333 333 331 330 328 328 327 325 323 322 321 320 321 321 322 322
286 291 282 290 295 294 288 292 290 291 290 292 293 293 294 296 299 298 298 294 290 288 287 287 286 292 300 305 305 305 307 309 309 308 309 311 313 314 321 323 321 322 326 331 332 332 333 334 335 334 336 335 335 335 334 334 334 333 334 334 335 334 335 335 336 335 335 335 334 333 331 330 329 328 327 327 326 324 322 321 320 320 321 322 323 323
288 289 283 289 289 288 290 296 295 295 295 294 293 292 294 292 291 288 287 298 296 292 288 287 287 296 303 306 307 307 308 309 311 310 310 311 312 316 319 322 325 325 324 327 332 333 333 333 334 335 335 335 334 333 333 334 332 331 332 333 333 333 334 335 334 335 333 333 333 331 330 329 330 329 327 326 323 320 318 318 320 322 323 324 323 323
295 292 289 285 288 289 293 296 299 299 299 298 297 295 297 297 297 292 286 290 295 295 297 295 291 292 305 306 309 310 310 309 312 313 311 312 316 318 322 320 321 322 326 331 333 333 333 333 333 333 333 333 332 332 333 332 331 331 333 332 332 332 334 334 334 333 333 331 330 330 330 329 328 328 327 324 321 318 317 318 319 321 322 322 322 321
298 288 286 289 292 295 296 298 299 299 298 296 297 298 297 295 297 295 296 297 294 294 291 292 288 294 305 309 310 311 311 311 312 313 314 315 316 316 322 322 320 322 329 332 333 333 333 333 334 333 332 332 332 332 332 332 331 330 332 332 332 332 332 333 332 332 332 330 329 329 329 327 327 326 325 322 319 318 318 318 319 320 323 323 321 318
287 290 289 285 286 287 291 294 294 297 296 294 294 295 297 298 299 299 299 300 292 295 295 292 287 293 306 309 309 309 309 310 311 312 314 314 317 318 317 317 321 327 328 331 332 333 333 332 331 331 331 331 331 331 332 331 330 330 331 331 331 331 331 332 331 331 331 329 329 329 328 327 325 324 322 320 319 318 318 318 319 321 322 322 319 319
289 289 289 283 280 278 277 279 282 286 290 294 296 296 298 297 297 296 291 293 289 295 296 292 292 300 306 308 308 310 310 308 310 311 313 314 314 315 318 319 319 323 327 331 332 332 331 331 331 331 331 330 330 331 331 331 330 331 331 331 331 330 331 331 330 330 330 328 327 327 327 325 324 322 321 319 318 317 317 318 319 319 321 321 318 318
290 294 293 290 287 286 288 290 294 294 293 291 293 295 296 297 298 299 297 292 290 295 293 297 298 298 301 304 305 308 309 310 313 316 312 311 313 316 321 322 326 329 328 330 331 331 331 331 330 331 330 330 330 330 330 330 331 330 330 330 331 332 331 331 331 331 328 327 326 325 325 325 325 323 321 319 317 317 316 317 319 319 318 319 318 317
293 289 292 294 293 293 294 294 295 294 292 294 294 294 296 296 298 298 292 291 299 295 290 298 301 299 299 303 304 306 308 309 310 312 318 320 322 322 321 321 317 327 330 330 331 330 329 330 330 330 329 329 329 330 329 330 331 330 330 329 330 330 330 330 331 330 328 326 325 325 325 325 325 324 321 318 317 315 316 316 317 318 318 318 317 316
292 288 293 295 295 294 295 295 295 294 294 295 295 295 295 297 297 296 296 299 300 293 291 298 301 300 301 303 307 308 309 311 311 313 314 320 324 325 325 324 324 325 328 329 329 330 329 329 329 328 328 328 328 328 327 327 328 329 329 328 328 328 328 328 328 327 326 325 322 322 323 323 321 320 317 315 314 314 314 316 317 318 317 317 316 316
295 290 294 294 294 295 295 295 295 294 296 295 295 295 296 296 297 297 298 299 299 299 300 300 301 302 304 305 307 309 311 312 314 317 316 314 316 319 323 319 319 323 326 327 328 328 328 328 328 327 327 328 327 327 326 326 327 327 327 327 327 327 328 328 326 325 324 322 320 319 319 318 316 316 315 314 313 313 314 315 317 317 317 316 315 315
296 290 295 296 294 293 296 295 295 295 295 294 295 296 296 297 296 298 298 300 301 300 300 300 300 299 305 310 311 313 313 313 315 315 319 319 321 322 323 319 316 323 326 327 328 328 328 327 327 328 327 326 326 326 326 326 327 327 328 328 327 327 327 327 325 324 323 320 318 316 315 315 314 314 313 313 313 314 314 314 316 316 316 316 315 314
297 291 296 295 289 290 295 295 295 296 295 294 294 295 296 296 295 297 295 300 298 297 300 300 298 299 305 309 310 314 311 312 314 317 320 321 322 323 322 321 318 325 326 327 327 328 328 327 327 327 326 326 326 326 326 326 326 326 326 326 325 326 327 326 326 324 324 320 316 315 314 314 314 314 314 314 313 314 314 315 316 316 316 315 314 314
297 295 291 291 287 288 295 295 294 294 293 290 291 295 297 298 298 299 299 300 300 301 297 293 297 305 307 310 307 314 312 312 315 317 320 322 323 323 320 321 324 326 326 326 326 326 327 327 327 327 327 327 327 327 327 327 326 324 325 324 326 326 325 325 324 325 322 317 317 316 316 314 313 313 313 313 313 314 314 315 316 316 315 314 315 314
297 295 291 296 288 290 293 295 295 290 284 286 298 302 300 298 297 296 296 299 301 302 300 303 303 309 308 308 307 308 310 312 315 319 322 323 323 323 324 325 325 325 326 326 326 327 327 327 328 328 328 328 328 329 329 328 326 327 326 325 326 325 323 323 324 320 316 316 316 316 317 317 315 314 314 314 314 314 315 316 316 316 316 315 314 313
295 296 292 296 289 289 293 294 287 282 285 301 302 302 302 301 300 298 299 300 300 301 302 302 303 304 305 307 311 312 314 313 318 319 322 322 324 322 323 323 324 324 326 326 328 328 328 327 327 327 327 327 327 328 328 326 327 327 326 325 324 323 321 320 321 317 316 314 314 314 314 315 315 315 315 314 314 314 316 316 315 315 315 314 312 312
293 292 293 291 293 292 289 288 281 284 298 300 301 303 304 302 301 300 298 300 301 301 302 302 303 304 305 307 313 315 314 318 321 322 321 322 326 325 324 324 325 327 328 328 328 328 327 327 326 327 328 328 327 328 328 326 326 325 324 325 324 322 322 322 322 317 314 313 314 315 315 316 316 316 316 315 315 316 315 315 314 314 314 313 312 312
299 297 295 290 296 286 288 288 288 298 297 299 298 300 300 297 299 297 291 296 303 303 303 303 303 304 305 306 313 314 318 317 316 319 324 324 325 326 325 325 326 330 330 329 329 330 329 328 328 328 328 327 327 327 326 326 326 324 323 322 322 323 323 320 316 315 315 314 314 315 317 318 318 318 317 317 316 315 315 314 314 313 314 312 311 310
301 295 296 291 289 293 288 287 288 287 284 290 300 303 305 306 305 304 299 296 304 304 305 304 303 304 305 308 313 315 316 311 311 314 321 324 326 326 326 327 328 328 331 331 330 329 329 329 329 329 327 327 327 327 326 326 325 325 324 324 322 321 321 319 318 318 316 316 318 318 320 320 319 318 317 316 315 316 315 315 314 313 313 311 310 310
300 302 299 295 291 291 288 286 286 284 289 301 302 303 306 307 305 306 298 293 302 305 305 305 304 306 307 308 313 316 310 304 306 315 321 324 325 326 325 326 328 328 329 329 329 329 329 328 327 326 326 326 324 325 325 325 325 324 323 323 323 323 322 321 322 321 319 319 319 320 322 322 321 318 316 314 313 314 313 313 313 312 312 311 310 310
298 298 295 292 290 290 289 287 286 290 290 301 306 306 307 308 308 302 287 289 303 305 306 306 306 307 308 311 313 313 308 306 309 318 325 326 326 327 327 326 327 327 328 329 330 330 329 328 327 325 325 325 325 326 325 325 325 324 323 324 323 322 321 322 322 321 321 320 320 320 322 319 317 316 314 313 314 313 311 311 310 310 308 308 307 307
294 293 295 290 291 290 288 289 290 293 299 307 307 308 307 310 305 290 286 297 311 313 313 311 309 309 312 313 313 308 313 319 321 325 327 327 326 326 328 329 329 328 328 328 328 322 328 326 325 324 325 327 327 327 326 325 324 323 324 325 323 322 323 324 325 323 321 321 320 319 318 317 315 314 314 313 312 311 309 307 306 306 306 306 306 307
293 292 292 294 290 289 291 289 290 295 304 308 309 307 308 302 289 289 304 314 313 312 316 314 314 312 313 316 313 317 322 324 324 324 327 326 326 326 328 328 328 329 329 328 325 326 327 326 326 326 325 327 326 325 325 325 324 324 323 322 321 322 324 324 323 322 320 317 316 315 313 312 312 312 312 311 309 307 306 306 306 305 305 304 305 306
294 290 290 290 291 293 292 289 288 286 297 310 311 305 308 295 296 311 315 314 315 315 315 316 319 321 320 319 323 324 325 324 325 324 327 326 326 326 326 327 327 328 327 327 327 327 326 325 325 325 326 327 327 326 326 326 324 324 322 322 322 322 322 321 319 318 317 314 312 311 310 310 310 310 309 308 308 307 306 306 305 304 304 303 303 304
300 292 291 293 297 289 289 286 288 299 305 312 310 296 309 312 316 317 316 313 314 317 317 316 319 320 321 319 322 323 324 324 325 326 326 325 326 327 327 327 327 329 329 329 328 326 325 325 324 324 326 327 326 326 326 325 324 323 322 323 324 321 319 316 315 313 312 310 309 309 308 308 308 308 308 308 308 307 307 306 306 304 304 303 303 303
300 297 298 292 301 296 293 297 304 307 307 310 313 314 316 317 318 319 318 318 315 317 322 317 319 322 322 321 324 322 322 324 323 324 324 325 326 326 326 327 327 328 327 326 326 326 326 326 326 326 325 324 324 324 324 324 321 320 322 325 323 320 318 316 314 312 310 309 308 307 306 306 307 308 308 308 307 306 305 306 305 303 303 303 303 304
302 304 305 302 300 306 307 307 309 308 309 311 315 315 317 316 318 318 317 316 319 321 322 321 323 323 325 325 319 321 322 324 324 324 324 325 325 326 327 327 327 328 328 328 327 326 327 327 327 325 325 325 326 326 325 325 324 321 323 325 323 323 320 318 315 313 312 310 308 306 305 305 305 306 307 307 308 308 307 306 304 303 302 302 302 303
302 303 304 298 302 298 292 307 307 307 309 310 311 315 316 317 315 317 318 319 320 322 322 323 322 324 326 326 322 321 321 324 323 324 325 325 325 326 326 326 328 328 327 326 326 324 326 326 325 325 324 323 325 325 325 327 326 325 326 324 324 323 322 319 316 314 313 311 308 306 305 306 305 306 307 308 308 309 308 307 305 304 302 302 302 302
301 308 301 301 300 296 296 306 308 309 309 311 312 311 312 315 317 318 319 320 320 322 323 324 323 322 326 325 325 325 324 325 325 325 324 325 324 325 326 326 327 327 327 328 327 326 327 326 325 324 324 323 324 325 325 326 326 327 327 326 324 324 322 318 316 314 312 309 308 306 305 305 298 303 307 308 309 308 308 308 307 305 303 301 302 301
303 306 295 303 299 302 304 307 307 307 308 310 312 314 315 315 315 316 317 318 318 319 320 322 325 324 325 325 327 325 324 324 325 325 324 325 325 325 326 326 326 326 326 326 326 326 327 326 325 325 323 323 324 325 325 325 326 326 327 326 324 321 319 316 314 313 311 309 307 306 306 306 305 307 307 308 308 308 308 308 307 304 304 305 305 304
303 299 302 301 294 294 298 302 305 297 296 305 309 312 314 316 316 315 316 316 317 317 319 319 320 323 324 326 326 325 324 325 326 325 323 324 325 326 327 327 327 327 327 328 326 327 326 326 326 325 324 324 324 324 324 325 325 326 325 324 322 321 318 315 313 313 310 309 308 307 306 306 305 307 307 307 307 307 309 293 294 303 306 305 297 290
303 304 303 297 294 295 305 308 309 308 307 306 311 312 313 316 316 314 314 315 316 317 318 318 318 319 321 323 326 325 323 324 325 326 325 324 324 326 328 327 326 326 326 327 325 326 326 325 324 325 324 324 324 324 324 325 325 324 323 323 323 321 319 315 312 311 309 308 308 306 308 307 306 306 306 306 306 306 307 306 303 290 287 293 298 295
Wind_Speed
10 13 13 14 15 17 21 23 22 22 21 18 19 17 16 17 18 19 20 18 22 20 24 25 24 20 21 21 23 14 15 18 19 19 17 17 17 16 15 16 16 17 15 15 16 17 15 14 13 11 12 12 13 11 13 14 15 14 12 12 12 11 12 10 10 10 9 9 9 6 6 6 6 7 7 5 5 6 4 3 3 3 1 3 4 4
13 14 14 16 19 21 20 21 22 21 21 22 20 22 17 19 18 18 19 22 19 19 19 24 23 20 21 22 23 16 18 20 21 20 19 19 18 16 17 17 18 17 15 15 15 16 15 13 14 11 12 13 15 13 15 15 14 14 13 14 13 11 12 10 10 9 8 7 6 5 6 5 6 7 7 7 5 4 4 4 3 2 1 2 4 3
14 15 15 19 20 20 20 19 21 22 22 23 18 14 17 18 16 18 18 22 17 18 15 21 22 20 22 21 23 20 19 18 20 20 20 20 19 17 18 19 18 16 17 18 16 17 15 16 15 13 12 13 14 15 14 15 15 14 12 13 12 11 11 10 10 9 8 7 9 9 7 8 7 5 4 6 5 4 4 4 3 2 2 3 3 3
16 15 19 19 19 19 20 21 20 21 20 17 18 18 16 17 17 16 16 20 18 14 14 18 20 17 19 19 22 21 19 18 21 23 22 20 20 20 20 19 17 17 18 17 17 17 17 16 15 14 13 14 13 13 14 13 14 12 11 12 12 11 10 9 9 8 7 8 10 7 6 5 6 6 6 7 6 6 5 5 4 3 3 4 4 4
15 14 19 21 19 19 20 20 21 18 17 20 21 18 16 19 18 18 14 16 14 15 17 16 15 15 18 19 20 21 20 18 19 20 21 20 19 17 16 17 17 18 18 18 18 17 16 16 16 16 14 13 14 13 14 13 13 10 12 11 11 11 11 9 9 9 9 9 9 8 8 8 8 7 6 7 6 6 6 5 5 4 4 5 5 5
19 19 17 18 19 20 21 20 21 19 17 17 24 22 18 19 19 21 17 19 13 14 18 19 13 15 18 23 22 19 18 20 19 20 21 21 19 20 19 18 17 16 17 18 19 18 17 16 14 14 15 15 14 13 12 13 12 11 11 12 12 10 10 10 11 10 9 9 9 9 9 9 8 8 8 8 8 7 6 5 5 5 4 5 6 6
15 18 20 18 18 20 22 19 22 22 17 18 19 24 21 20 18 19 18 18 15 15 18 22 16 11 15 21 21 21 22 23 19 20 21 20 19 19 18 17 17 17 18 18 17 17 18 17 16 15 15 15 14 14 12 12 13 13 12 14 11 9 9 8 8 10 8 9 9 10 9 7 5 6 6 5 5 6 6 6 6 7 6 6 5 5
13 19 19 19 18 19 20 20 21 23 18 17 19 24 22 20 20 23 21 17 12 13 14 22 17 13 13 17 21 23 23 23 23 22 22 20 20 19 19 18 18 17 19 18 18 18 18 18 17 16 13 13 14 12 13 13 11 10 9 11 10 7 7 5 5 9 9 10 9 10 9 6 6 5 6 6 5 6 7 7 7 6 7 6 5 5
16 18 20 19 20 17 19 19 21 24 19 15 20 23 23 20 15 18 20 17 14 13 14 17 23 15 12 14 21 23 24 25 25 24 23 22 22 20 19 19 19 18 18 20 19 19 19 18 17 15 13 13 13 11 12 11 9 9 6 8 9 8 8 9 10 10 10 9 10 8 7 7 2 4 6 5 6 7 7 9 7 6 7 7 6 5
13 17 19 20 18 16 17 23 24 22 19 20 18 21 21 21 19 19 17 18 16 15 14 17 20 14 15 11 17 22 24 25 24 24 24 24 23 22 19 19 21 19 18 19 19 19 18 17 16 15 14 13 12 12 12 11 6 6 9 10 10 9 9 9 11 10 11 9 9 9 9 9 10 9 8 8 8 8 8 9 9 8 7 6 5 5
16 13 17 15 18 16 17 21 24 21 21 17 21 19 19 20 17 14 14 17 14 14 17 18 23 19 13 16 15 19 22 22 19 18 20 22 22 22 20 20 19 19 18 17 17 18 17 16 16 16 15 15 13 13 16 13 8 11 13 14 14 14 11 11 11 12 12 8 8 9 11 12 11 11 10 9 9 8 9 9 8 7 6 4 5 5
18 17 14 14 18 14 18 21 22 20 21 22 17 17 16 16 17 14 12 14 13 15 18 20 21 25 16 14 17 17 19 22 21 24 24 24 23 21 20 19 20 20 18 17 17 18 17 17 16 14 14 15 15 16 16 15 12 14 15 17 16 14 14 13 12 13 13 11 9 10 12 12 11 11 10 10 10 10 11 10 9 7 6 5 5 5
16 18 14 17 16 20 18 16 16 21 21 21 19 17 17 14 14 16 14 14 15 16 16 22 22 19 21 13 15 17 21 22 22 20 23 24 24 22 21 21 19 18 18 17 17 18 17 18 18 17 16 16 15 15 17 16 15 16 16 16 14 15 14 15 14 13 13 12 12 11 11 11 10 10 10 11 11 11 11 10 10 8 6 5 6 5
12 15 19 18 17 18 18 17 17 20 21 22 20 18 17 16 16 15 16 12 14 15 14 19 19 15 14 17 17 15 19 19 20 22 23 24 24 23 22 20 19 18 17 16 17 17 17 17 17 18 17 16 15 16 15 18 17 15 15 16 14 15 15 14 13 14 13 12 11 10 10 10 10 10 10 10 11 8 5 7 9 7 5 6 6 6
11 13 17 18 15 18 19 16 16 16 21 21 19 19 16 14 15 17 16 17 16 13 15 18 15 13 16 12 22 15 16 19 20 21 21 23 23 22 21 20 20 19 17 15 16 17 19 18 19 17 17 15 15 17 14 16 17 16 15 15 14 15 14 15 13 13 14 11 11 11 10 9 9 10 10 10 9 8 9 7 7 6 6 6 6 6
16 12 13 21 15 20 20 19 20 22 19 19 19 18 18 17 13 14 10 12 14 13 12 14 12 13 11 3 17 15 10 15 18 21 21 24 22 23 20 19 18 17 17 17 17 17 19 19 18 16 15 15 13 15 14 17 17 15 14 14 14 14 14 14 14 13 13 12 11 11 12 11 9 8 9 9 10 7 8 7 7 7 6 6 5 5
10 12 14 18 22 21 21 19 18 20 17 18 18 19 18 16 15 9 8 12 6 9 12 7 12 12 11 2 9 19 16 15 17 20 22 23 24 23 20 19 19 17 17 16 17 17 19 18 17 16 16 16 16 16 16 17 16 16 13 15 15 15 14 15 14 13 11 11 12 12 12 11 9 10 11 11 13 10 8 7 6 7 7 6 6 6
10 11 15 19 25 22 22 19 21 24 16 15 18 18 19 20 14 11 10 7 11 13 10 14 15 14 14 10 11 17 19 17 17 20 21 23 24 23 20 19 19 18 16 18 18 19 19 18 18 16 16 17 17 18 17 17 16 14 15 16 14 14 16 13 14 12 11 11 10 11 12 12 12 11 12 13 15 12 9 7 7 7 6 7 6 7
14 9 14 21 23 21 21 18 18 21 24 17 18 18 18 14 16 14 7 13 13 12 9 13 16 12 13 10 14 16 18 19 19 20 21 23 23 23 21 22 21 20 17 15 18 18 18 18 18 17 16 17 17 17 16 15 16 13 11 12 14 13 13 14 12 12 11 11 9 8 9 11 10 10 11 13 13 13 11 10 9 9 7 8 8 8
13 9 10 18 22 21 18 16 15 17 21 20 19 19 18 11 13 14 10 10 11 11 12 14 16 10 14 10 15 14 15 18 19 20 21 21 23 21 20 19 19 18 17 18 18 17 18 19 18 18 18 18 19 19 17 15 14 14 11 14 12 12 14 12 14 12 13 10 9 10 9 10 11 12 13 13 13 11 11 11 10 9 9 8 8 8
11 9 8 14 23 19 17 14 15 18 19 18 18 17 16 11 7 8 11 13 11 9 10 9 11 11 11 11 15 18 18 18 19 19 18 20 21 21 21 18 17 18 17 18 18 18 19 19 18 17 17 18 16 15 16 15 14 13 13 16 14 16 16 15 14 12 11 9 11 12 13 13 12 14 13 14 13 11 11 10 9 9 8 9 8 9
9 9 8 14 17 18 16 16 17 20 20 17 16 17 16 14 12 13 12 11 12 11 9 10 9 9 10 11 14 16 17 16 17 17 17 19 21 19 17 19 17 16 19 20 18 19 19 19 19 17 17 17 16 17 18 17 14 16 18 17 16 15 13 15 15 12 11 10 10 13 13 14 13 13 13 13 11 11 10 9 8 8 8 8 8 9
4 3 8 14 16 16 18 20 18 21 22 18 18 17 20 15 12 12 11 13 12 13 12 11 7 7 12 13 12 12 15 18 17 18 17 16 19 19 17 20 20 18 18 18 19 18 18 18 18 18 19 19 19 18 19 16 13 14 18 16 14 14 14 15 14 11 12 12 13 12 13 13 13 13 15 13 11 11 10 9 8 8 8 9 8 9
7 3 9 12 11 14 18 17 19 21 22 18 17 15 16 15 16 13 9 10 10 14 14 10 7 6 9 10 7 10 14 13 15 17 18 17 16 15 16 16 15 17 14 18 17 17 17 18 18 18 18 18 17 17 18 16 13 16 17 16 17 17 16 14 10 9 12 13 15 16 14 14 14 15 15 13 11 12 11 10 9 8 7 8 8 10
6 6 11 13 11 12 15 16 16 17 16 13 14 16 18 17 16 12 7 6 7 9 11 9 10 8 4 8 8 9 14 15 17 17 17 17 18 17 18 16 13 12 16 20 19 18 19 18 19 18 18 17 18 17 17 17 14 16 16 16 17 16 15 12 9 10 13 14 15 15 15 15 15 16 14 12 11 12 11 11 9 8 9 8 9 10
2 6 11 10 11 14 14 15 16 15 17 14 17 18 20 21 18 13 8 9 10 10 12 5 6 8 10 8 9 8 11 13 13 17 17 17 19 19 17 17 16 22 20 20 19 19 20 18 18 17 18 17 18 18 16 16 16 14 15 15 15 16 16 13 11 12 14 14 13 13 14 15 15 15 14 13 12 12 10 9 9 9 7 9 11 10
2 9 6 9 11 11 13 15 15 16 16 18 21 21 18 20 20 14 8 6 10 10 9 6 5 12 13 12 14 13 11 11 7 5 7 8 15 17 17 16 16 16 18 19 19 18 18 19 19 18 17 14 18 17 16 15 14 15 15 15 15 16 15 15 14 14 15 17 16 16 16 15 15 14 13 13 11 10 10 9 10 9 9 9 10 11
2 3 8 6 9 6 9 13 16 19 18 20 21 21 20 21 21 17 10 7 11 10 10 9 10 10 12 13 13 11 10 9 12 12 9 8 9 13 16 15 17 15 19 18 18 20 21 21 19 19 19 15 12 13 16 11 12 13 15 15 13 12 11 9 12 15 16 16 14 14 15 14 15 14 12 12 11 10 10 9 9 9 9 9 11 10
2 5 6 5 7 10 16 17 18 17 19 20 21 21 23 21 19 19 16 12 11 6 8 10 10 10 11 11 8 8 5 5 6 9 14 14 12 13 17 18 19 21 19 19 18 19 20 20 20 18 16 16 18 20 19 16 15 12 14 14 16 16 17 17 16 16 16 15 14 14 14 14 13 11 12 12 11 10 10 9 9 9 9 9 10 9
2 6 8 9 12 7 9 22 22 20 18 18 18 19 17 16 17 18 17 16 12 9 9 14 10 12 7 9 8 8 5 3 3 4 8 14 17 17 17 19 17 18 19 20 19 20 18 19 20 19 16 16 19 19 18 17 17 17 17 16 16 17 17 17 16 16 15 15 14 14 13 12 10 11 12 11 10 11 10 9 9 8 9 10 10 10
2 0 5 7 4 6 3 9 17 18 18 18 18 18 19 18 17 16 17 14 12 9 3 6 5 1 4 5 6 3 1 2 3 6 10 12 15 17 18 20 23 22 20 19 21 20 20 20 21 19 20 20 19 19 17 17 16 15 16 17 16 16 16 16 16 15 14 14 14 13 12 11 11 11 12 11 10 11 11 10 8 8 9 10 10 10
6 6 4 5 5 7 9 9 14 15 16 16 17 18 19 19 18 16 14 15 14 10 8 5 4 6 8 6 3 1 1 2 2 4 9 10 14 16 17 19 19 19 20 20 21 21 21 21 21 20 21 19 19 19 18 18 17 17 16 16 16 16 16 15 15 15 15 13 12 12 12 11 12 12 12 12 12 12 11 10 10 9 10 10 10 10
3 5 4 0 2 6 12 12 14 16 14 14 15 18 20 18 16 16 15 14 16 12 9 6 7 7 4 4 3 5 1 2 1 3 6 10 12 15 17 17 18 18 20 20 20 20 20 21 21 21 20 19 19 18 17 18 17 16 16 16 16 15 15 15 15 15 14 12 13 14 13 12 12 12 12 12 12 11 11 11 11 10 11 11 10 10
7 8 5 2 2 3 12 14 12 11 11 11 11 15 17 18 19 18 16 16 14 14 10 7 5 10 6 5 3 4 4 5 4 3 3 6 10 11 13 14 16 17 17 18 17 19 19 18 16 17 18 18 19 17 17 16 16 16 15 15 16 16 15 15 15 13 13 14 12 13 13 14 14 13 13 13 12 12 12 12 11 11 11 11 10 10
10 8 5 4 2 3 10 12 11 10 9 4 8 14 15 15 17 16 14 15 15 19 18 15 12 10 8 2 1 1 4 4 2 2 6 7 11 12 13 15 16 16 17 17 18 19 19 19 19 19 18 17 16 16 16 16 16 14 15 16 17 16 15 14 14 13 13 13 12 12 12 13 13 14 14 14 13 12 13 12 12 12 11 11 11 10
7 7 5 2 4 4 7 8 8 7 6 6 5 11 13 12 13 13 12 15 16 17 16 16 14 10 9 3 2 2 3 0 0 2 6 10 9 11 14 14 15 17 19 17 18 17 19 20 20 20 18 15 15 17 16 15 15 16 17 17 17 15 15 15 15 13 12 12 13 13 13 14 14 14 13 14 14 15 14 13 13 13 12 11 10 9
10 9 6 5 5 5 7 8 4 8 7 6 6 9 12 13 14 13 9 12 13 14 15 13 11 10 11 3 2 3 2 2 3 4 5 7 10 11 11 13 14 16 16 16 17 17 16 16 18 19 18 18 18 16 15 16 16 16 17 16 15 16 15 14 14 13 14 13 13 14 15 15 16 16 16 16 16 15 14 14 14 12 11 11 10 10
10 10 5 4 3 4 8 7 4 6 6 6 4 8 6 9 10 12 7 8 11 13 13 11 10 8 8 2 2 1 3 5 5 5 6 8 9 11 12 12 13 15 17 17 17 17 17 17 16 17 18 19 17 17 17 18 17 17 17 16 15 15 15 14 14 14 14 14 16 15 16 15 15 15 16 15 15 14 12 12 12 12 11 10 10 10
12 10 10 6 3 3 5 4 5 4 2 6 6 4 5 2 8 11 9 8 9 13 13 12 10 8 7 5 4 4 5 2 4 4 9 9 9 11 13 14 15 15 16 17 19 20 19 16 16 17 19 19 18 16 16 18 18 17 17 16 16 16 16 16 17 17 16 16 16 16 16 15 13 13 13 14 13 13 13 13 13 12 11 10 11 10
11 6 4 6 4 3 3 4 2 3 2 4 3 3 5 6 2 9 9 5 7 14 7 9 7 6 7 5 6 6 4 2 4 2 7 10 11 12 13 15 15 16 15 16 17 17 17 18 18 17 19 20 18 17 18 18 17 17 17 18 17 17 16 16 16 16 15 15 15 14 11 12 14 13 13 13 13 12 11 12 11 11 11 10 10 10
3 4 3 2 3 3 4 4 3 2 3 2 4 0 4 6 7 8 6 4 8 5 3 3 5 4 1 4 6 5 4 3 4 5 7 11 12 13 11 12 13 15 17 16 16 17 17 16 17 18 19 18 19 18 18 17 17 17 18 19 17 18 16 16 15 15 15 14 14 13 13 12 12 13 12 11 11 10 10 10 10 10 9 9 8 9
3 3 2 1 2 4 5 2 3 4 5 5 4 2 8 10 8 5 5 1 1 1 2 2 4 6 8 5 3 0 4 3 2 4 8 12 13 13 15 15 15 15 14 14 17 17 16 16 17 18 18 17 18 17 17 17 18 18 17 17 17 16 15 16 15 14 14 14 13 12 11 11 11 11 10 11 11 11 10 9 10 10 10 9 9 11
3 4 0 3 3 3 1 3 4 3 3 8 5 6 1 4 3 4 3 3 4 0 2 3 2 5 3 6 5 4 0 3 4 8 11 13 14 14 15 16 17 18 17 18 18 16 15 15 17 17 18 17 18 16 18 19 19 17 15 15 16 14 13 12 12 12 13 13 12 12 12 11 12 10 8 10 11 11 10 9 10 10 9 10 9 10
5 5 3 3 6 3 2 2 1 2 6 8 7 2 5 6 4 4 5 3 5 2 5 3 3 2 5 8 5 3 4 4 8 11 13 14 14 13 13 14 14 16 18 18 16 17 16 15 15 16 16 15 16 16 16 17 18 17 17 18 14 13 13 12 11 12 11 10 11 12 11 12 12 10 9 11 11 10 10 10 9 9 8 9 9 9
5 4 5 4 5 4 3 3 4 4 5 9 2 5 7 6 5 3 4 5 4 5 5 4 5 4 5 9 7 6 4 4 8 11 12 14 15 15 15 14 16 17 16 16 17 17 17 17 19 18 18 16 17 15 15 15 13 15 17 15 14 14 13 13 13 12 12 11 11 10 9 9 10 11 11 10 11 11 10 11 10 9 9 9 9 9
2 2 2 6 3 4 5 5 3 2 4 5 6 5 7 6 7 7 8 6 6 6 6 5 4 4 5 10 9 5 5 7 9 10 10 12 13 14 14 14 14 15 15 16 16 17 15 15 16 17 18 17 17 15 15 15 14 16 14 13 14 14 13 14 14 13 14 12 11 11 11 10 10 11 11 11 10 10 10 10 10 9 9 10 9 9
4 2 1 4 3 4 1 1 4 2 2 5 7 8 7 5 8 8 8 9 9 8 7 6 5 4 5 4 10 9 9 7 11 9 10 9 11 13 14 15 15 14 14 16 15 15 14 16 15 17 18 17 16 14 14 15 15 14 14 14 14 14 14 13 14 14 13 13 12 12 11 10 8 8 10 11 11 10 10 10 10 10 10 10 10 10
2 2 5 3 4 2 5 4 3 1 3 4 2 3 6 6 7 6 6 7 8 9 9 8 6 6 3 5 6 7 9 10 10 11 10 10 10 11 13 13 15 14 13 13 15 14 14 16 15 15 15 15 14 13 14 14 15 15 16 16 16 14 14 13 11 12 13 13 11 10 11 10 12 12 10 11 11 11 10 10 10 10 10 10 10 9
2 7 2 3 4 2 9 8 3 1 5 3 5 3 4 4 5 6 7 8 8 10 10 10 9 8 8 7 5 6 7 7 8 8 9 9 11 10 10 11 10 12 12 14 14 13 13 15 16 15 15 14 13 13 13 13 13 14 15 14 14 13 13 12 11 10 12 12 11 11 10 9 10 9 9 10 10 9 10 11 10 9 9 10 10 10
5 2 8 11 4 1 3 2 2 3 2 0 3 3 5 4 6 7 8 8 8 8 8 9 9 9 8 8 6 5 7 6 6 6 7 8 9 10 12 12 12 13 13 13 13 12 12 13 15 15 15 13 12 12 12 12 12 13 13 13 14 14 13 12 12 12 12 11 11 11 11 10 10 10 10 10 10 9 5 10 7 1 8 11 6 11
7 6 3 0 2 3 5 3 5 3 3 7 7 3 2 1 5 8 9 8 8 8 7 7 7 8 9 8 8 7 6 6 6 7 6 6 7 9 10 11 12 11 12 13 13 13 12 13 14 15 14 13 13 13 13 12 12 12 13 13 12 12 12 13 12 12 11 10 10 11 10 10 11 10 10 11 10 9 10 8 5 11 12 8 8 9
Wind_Direction
199 213 214 214 220 216 212 219 223 225 236 236 237 234 223 224 232 219 215 213 181 206 210 217 220 215 219 224 238 167 169 190 202 209 208 203 203 203 196 198 192 181 187 175 159 167 162 163 164 162 164 162 163 163 164 168 171 169 170 165 167 176 167 177 177 177 175 177 163 143 152 163 170 159 152 147 161 163 167 147 127 101 8 99 98 94
207 223 223 225 222 225 220 218 226 233 234 244 234 223 221 218 226 217 207 215 184 203 210 215 219 214 219 217 224 188 192 197 206 209 208 204 200 201 194 199 194 184 168 155 158 167 161 161 161 159 163 162 165 169 169 171 171 170 168 163 168 177 170 180 179 175 179 173 135 147 172 183 182 168 164 155 161 170 129 130 113 109 148 91 102 107
205 223 225 227 231 229 231 222 221 229 231 238 236 239 244 220 220 227 208 211 191 197 218 207 216 216 217 213 219 204 201 206 207 212 210 204 199 195 196 196 191 178 164 162 165 164 164 163 164 169 168 169 169 168 173 171 171 169 170 171 168 168 175 183 177 180 177 161 125 166 183 180 173 141 145 138 144 150 132 107 115 147 141 118 98 93
223 215 227 231 231 234 230 231 223 221 229 231 220 224 225 221 198 214 203 206 192 195 209 206 209 218 217 212 218 208 205 206 208 211 211 203 199 195 194 195 186 174 155 166 163 165 163 164 166 171 172 167 166 169 171 172 170 169 170 172 169 167 174 177 181 184 164 154 146 178 178 159 148 140 124 125 136 106 116 136 144 143 119 114 109 108
227 223 214 225 231 232 231 225 226 218 218 226 225 218 234 221 207 223 184 202 184 196 221 214 207 215 213 207 210 211 202 205 207 211 213 205 200 196 193 193 187 173 169 171 173 170 169 168 172 174 174 164 166 170 170 168 172 169 170 170 166 170 175 176 170 173 165 157 160 131 118 120 126 133 135 146 159 157 155 147 151 131 133 132 122 111
234 234 233 221 221 226 228 225 221 220 218 217 226 222 228 229 216 208 197 191 188 198 206 219 208 212 205 212 207 207 203 204 203 207 208 203 199 193 194 192 182 172 173 174 176 171 167 168 167 169 174 171 169 173 170 167 169 167 163 181 173 176 176 172 168 168 166 168 152 151 148 155 157 155 167 177 173 159 168 145 116 128 128 126 116 112
234 232 239 237 220 223 223 226 219 215 221 216 209 219 226 229 216 210 213 188 205 206 191 213 223 206 204 209 207 203 207 202 199 206 205 202 199 190 187 187 181 179 176 177 174 171 164 168 173 175 170 170 168 176 166 169 167 164 167 172 172 171 172 158 165 172 170 165 163 160 172 157 145 176 173 162 157 157 130 135 143 127 109 98 94 80
232 239 238 233 226 220 219 219 217 214 219 220 208 206 231 231 216 209 219 205 213 210 206 201 218 232 197 206 204 202 207 202 201 201 203 201 196 187 185 183 179 182 184 181 180 174 172 169 174 170 162 170 175 169 168 168 157 148 155 179 169 155 110 99 227 178 175 163 164 168 157 145 175 197 163 157 135 108 138 138 135 131 115 110 93 73
228 229 233 225 223 225 221 218 216 214 218 224 209 204 215 226 240 233 214 217 212 203 213 194 206 227 235 198 199 197 207 202 201 200 199 198 195 189 186 183 178 183 188 180 179 176 173 170 170 168 167 169 174 164 156 137 102 129 183 179 164 149 136 170 196 171 173 169 169 162 163 166 169 201 139 124 139 144 141 128 124 118 117 117 98 84
223 242 232 234 221 219 216 222 216 206 216 219 217 205 210 220 239 238 207 219 206 218 214 197 192 214 218 218 186 196 206 203 199 197 196 197 193 189 184 187 187 189 191 187 179 167 168 166 167 165 165 166 169 156 119 100 118 152 171 170 171 173 165 178 176 170 161 151 169 166 164 152 154 157 151 159 156 145 141 135 132 127 126 114 94 92
266 239 248 236 226 217 209 227 219 206 221 213 224 212 207 213 225 232 214 211 208 222 219 203 191 207 218 214 204 191 202 198 191 193 195 194 192 188 184 188 188 187 185 186 177 168 165 160 163 161 165 162 156 149 131 140 171 165 184 178 177 172 166 175 167 175 158 176 178 165 161 160 158 159 157 154 147 147 144 136 125 115 112 104 105 94
251 248 241 235 234 217 222 219 210 213 211 211 213 212 195 202 212 219 229 214 213 214 213 213 197 198 227 205 218 196 196 198 194 193 189 190 188 186 185 189 191 187 186 179 174 160 163 161 162 160 161 158 159 155 144 153 166 173 182 186 178 162 162 168 173 176 168 172 176 173 162 159 163 164 161 155 152 155 151 141 138 132 124 116 101 91
240 235 237 245 221 220 212 223 206 210 206 206 212 205 196 189 195 205 208 211 213 216 200 212 203 197 217 226 213 196 187 196 199 193 191 189 186 185 184 188 190 188 183 179 170 163 163 159 157 161 168 159 161 156 155 157 169 177 183 180 173 168 171 176 174 173 174 170 172 169 170 167 164 168 161 158 156 159 158 153 147 140 134 123 109 116
228 234 227 231 218 209 217 208 195 204 197 200 211 195 195 190 184 197 202 209 215 221 214 203 203 221 212 220 238 202 181 190 197 201 193 188 185 184 184 187 190 186 182 175 175 170 163 162 160 164 168 163 164 161 160 165 172 177 174 173 173 167 174 173 174 172 173 166 165 170 171 164 161 166 162 158 160 142 112 139 144 137 133 124 126 145
225 209 220 217 211 195 215 226 214 200 189 199 212 197 200 196 187 186 195 199 205 200 203 196 196 217 208 198 215 230 179 188 196 198 190 187 186 183 186 186 186 182 176 171 172 174 164 160 163 165 165 165 165 162 157 163 173 176 174 171 177 169 173 174 175 177 175 169 172 172 166 159 168 162 157 158 143 134 137 134 128 133 129 127 141 148
227 236 208 213 218 199 207 217 221 200 191 202 201 198 206 200 184 203 194 205 195 198 195 193 213 202 217 153 195 221 166 188 195 193 186 182 182 186 184 182 183 176 174 175 172 173 170 163 164 165 163 163 163 165 155 169 175 180 176 174 173 166 174 174 180 183 174 173 177 174 167 161 167 150 149 137 144 127 129 137 136 129 124 126 144 140
218 229 210 195 216 206 206 207 225 215 196 188 204 201 202 205 197 201 203 223 187 213 202 191 203 206 195 186 224 199 172 187 195 191 185 182 185 183 182 178 177 173 175 175 173 174 169 168 163 166 165 165 166 166 161 171 175 174 165 164 163 165 174 179 180 179 175 176 177 172 164 156 156 158 145 146 146 132 127 143 123 114 116 125 135 134
224 212 198 187 201 206 203 213 212 205 209 186 201 195 213 222 211 203 195 192 207 200 205 189 204 192 194 194 197 204 179 187 194 191 186 183 182 180 182 179 177 171 176 180 177 169 168 167 167 162 167 168 167 166 159 165 169 168 167 163 155 175 176 178 177 177 174 173 165 162 159 155 161 161 151 154 153 145 135 123 115 109 126 132 133 138
223 201 183 194 198 193 206 218 212 206 216 202 197 189 208 193 201 199 208 190 194 196 204 195 207 210 195 195 183 198 179 183 188 189 188 182 181 182 178 174 169 172 168 179 179 169 166 165 166 166 169 168 167 162 154 156 162 163 157 151 167 171 167 167 171 173 170 161 156 153 148 153 157 149 152 152 150 152 142 138 130 132 139 136 136 140
262 229 166 190 196 188 205 204 208 194 207 211 205 206 218 213 213 191 202 185 201 194 203 186 201 212 201 191 174 189 186 188 187 187 188 183 182 180 173 166 168 171 166 189 182 167 165 167 168 167 168 168 163 161 158 152 158 160 157 160 161 166 170 167 175 165 161 157 152 143 144 153 155 155 155 155 153 147 141 135 134 138 141 145 147 146
229 245 193 180 192 189 201 202 204 204 186 202 208 207 196 226 220 231 201 212 194 199 195 190 196 209 206 191 174 195 193 192 188 186 184 185 184 177 165 162 171 169 174 181 178 167 164 163 166 168 166 161 159 156 156 154 156 152 154 164 162 170 173 170 170 162 157 148 148 142 161 159 157 153 154 155 149 134 129 127 133 145 152 151 149 147
233 181 217 171 186 198 205 199 208 204 195 196 198 201 195 196 191 197 199 209 208 202 188 205 203 205 211 209 176 195 188 195 184 184 183 184 174 171 160 165 165 169 178 185 183 166 162 165 165 164 162 160 157 159 161 156 145 154 163 163 166 174 175 165 168 160 150 139 147 160 161 160 154 153 154 149 134 129 123 125 139 145 150 146 146 153
173 227 211 176 186 196 201 195 211 214 201 198 200 200 196 190 201 198 193 189 193 199 202 202 210 195 187 198 180 188 188 196 184 182 183 175 174 172 168 172 180 181 175 190 176 164 159 161 164 164 163 162 160 160 161 151 146 158 164 164 167 172 171 168 163 156 147 145 162 159 160 156 155 155 155 142 133 127 128 130 139 148 158 143 152 148
115 203 217 184 182 184 197 193 207 216 204 197 203 208 196 197 204 207 201 185 212 182 197 178 200 169 156 143 145 194 176 191 182 183 180 179 169 163 159 172 173 169 181 186 170 159 156 158 161 161 160 160 159 162 161 155 149 163 166 165 162 169 171 166 159 158 148 149 161 164 159 159 158 157 156 143 135 134 135 140 146 155 160 149 149 150
227 226 211 171 166 182 181 190 202 211 207 197 200 218 213 199 205 216 213 193 223 215 210 186 192 148 161 126 166 169 167 186 183 183 181 179 173 174 177 173 172 173 181 185 169 157 154 157 160 162 162 161 161 162 161 158 153 162 165 165 166 170 170 163 153 154 150 157 161 162 161 159 158 157 148 132 133 132 136 142 150 164 159 147 152 149
49 233 201 178 175 175 179 183 188 190 194 195 203 200 199 195 208 208 192 181 213 163 205 182 169 126 143 177 169 190 176 178 183 181 185 184 173 174 171 163 174 178 187 177 164 155 156 157 161 159 159 161 162 161 159 158 159 162 162 162 162 163 169 152 157 162 151 159 156 159 160 159 158 157 143 135 133 134 139 143 150 154 151 152 151 152
220 240 227 206 177 180 177 179 178 191 194 196 200 197 193 203 202 205 208 177 199 171 198 186 123 138 152 177 173 169 187 153 164 171 174 165 161 159 152 157 169 172 182 175 162 156 154 158 158 157 157 153 161 159 159 159 161 157 158 159 162 161 158 154 163 155 155 160 161 162 162 160 157 151 140 136 136 137 140 146 150 155 157 156 154 157
337 307 261 225 195 189 192 180 174 203 200 197 194 193 199 206 202 197 208 194 198 184 190 105 132 137 148 150 155 155 178 177 175 187 161 164 166 157 154 168 161 185 181 171 161 159 160 160 156 153 156 153 145 150 156 154 154 149 154 156 154 149 145 147 151 155 159 159 161 158 159 159 157 154 138 135 136 137 139 144 152 159 157 157 158 161
83 258 227 270 271 240 225 185 184 194 205 196 193 199 207 206 200 199 205 209 193 204 165 114 133 128 122 119 116 117 125 159 165 175 183 175 176 168 167 169 167 185 181 169 161 158 158 160 158 152 150 151 155 156 155 157 158 155 155 155 156 156 156 157 158 160 159 157 156 156 155 153 153 144 129 132 135 135 139 149 157 161 157 160 161 164
195 238 221 213 223 268 235 181 182 189 189 197 199 200 192 194 208 210 204 206 191 193 157 134 139 98 122 139 130 102 81 81 124 193 200 183 181 182 172 170 182 193 181 168 161 159 161 158 155 154 152 158 161 154 155 157 163 162 160 156 157 157 157 158 157 157 157 155 154 154 152 146 136 128 132 136 141 143 148 154 158 164 160 165 165 166
37 259 168 237 196 215 235 179 189 189 187 191 193 193 194 194 204 205 202 205 207 203 200 134 96 156 163 127 100 79 102 161 178 196 188 181 176 177 177 177 183 187 174 165 154 157 163 161 159 158 163 162 157 160 156 160 162 159 161 157 156 154 156 158 157 155 153 148 151 148 138 133 134 134 138 143 145 148 154 154 161 168 167 167 169 167
127 304 298 190 220 186 203 195 201 191 192 196 192 196 197 197 200 198 207 200 224 217 213 223 206 194 99 98 58 68 107 140 158 168 185 181 178 176 178 179 183 179 168 164 165 164 165 168 168 169 167 159 158 161 158 161 162 162 161 157 158 157 158 159 159 157 157 146 142 141 139 137 139 144 147 150 152 156 158 160 168 176 174 169 170 168
11 281 303 186 217 185 180 201 191 187 181 194 198 194 195 197 203 198 209 214 234 238 227 208 197 79 74 82 176 155 131 118 112 151 177 191 179 180 180 181 179 172 168 165 167 168 165 165 167 165 159 159 161 163 160 160 161 162 159 157 158 157 158 156 159 159 148 147 153 147 147 145 148 149 152 156 155 159 160 170 180 184 179 178 170 167
294 290 299 261 320 149 175 184 175 179 191 200 189 196 198 197 195 200 198 208 229 235 234 232 195 139 165 144 297 340 355 24 11 127 192 195 185 178 184 181 177 174 171 161 162 168 163 164 163 163 164 163 161 162 160 159 162 161 153 156 157 156 155 158 157 147 148 151 148 144 150 155 159 160 160 160 161 164 170 182 190 183 182 177 174 171
298 306 285 333 283 195 165 167 180 189 190 79 179 186 195 196 192 203 196 204 215 238 242 243 246 263 272 52 32 23 306 310 307 150 149 211 190 187 182 182 181 172 160 167 162 165 167 169 166 162 163 163 164 166 163 158 162 159 153 155 156 156 151 155 156 152 148 146 144 143 152 160 162 162 163 165 166 172 184 191 187 180 181 181 178 173
302 307 323 331 263 161 168 171 181 178 90 173 185 186 177 195 190 192 204 200 214 228 241 245 247 254 267 260 23 7 7 34 302 151 184 193 190 189 182 180 179 165 160 169 174 167 166 164 164 165 161 158 161 164 164 154 151 155 156 160 158 155 158 161 162 150 145 145 152 158 165 167 165 164 167 168 175 186 193 188 184 182 181 181 174 173
290 302 302 310 278 180 169 174 169 116 155 127 164 205 173 190 183 192 197 201 207 228 239 248 249 250 256 283 317 319 27 326 257 161 166 229 182 187 181 173 180 156 153 156 171 162 153 161 161 164 158 161 164 161 160 157 152 155 154 153 157 162 162 159 156 153 153 156 162 167 169 174 177 180 181 184 186 188 188 185 184 178 184 179 173 173
291 286 306 301 282 229 181 171 144 171 171 160 141 181 199 197 190 186 204 213 207 219 231 243 251 241 249 235 351 344 272 273 252 165 163 215 177 174 173 175 175 168 151 155 160 158 162 163 161 158 156 162 161 160 159 158 160 163 164 162 159 159 162 163 161 159 160 166 171 171 177 179 182 183 185 185 189 190 178 181 179 183 181 175 168 165
275 272 279 279 283 241 216 187 188 152 82 308 88 113 141 258 197 164 197 224 186 212 210 222 223 231 241 223 183 209 242 248 311 96 160 187 166 163 173 172 169 166 161 162 159 157 156 154 157 153 158 160 162 161 158 162 163 166 169 164 168 172 171 174 173 171 169 172 174 178 181 184 182 181 176 178 180 188 180 184 183 180 176 177 174 167
268 255 224 242 248 251 236 216 79 49 105 343 11 176 180 188 208 176 197 192 141 196 207 201 218 223 224 179 194 228 243 154 259 136 145 162 163 162 171 158 160 161 157 165 160 152 146 148 151 157 162 164 160 161 161 163 167 170 173 172 166 168 172 172 173 173 171 170 173 175 178 168 180 175 175 174 174 171 164 171 164 167 167 168 174 171
311 309 249 250 239 181 235 110 124 84 72 18 286 235 151 163 181 187 188 100 340 20 89 214 226 221 179 195 217 219 207 65 120 111 148 157 158 154 155 154 158 161 155 161 153 147 153 147 156 164 167 168 166 168 168 168 168 171 175 173 176 179 176 176 173 170 168 168 169 172 171 168 168 168 167 165 158 151 152 156 155 157 157 159 165 166
273 279 223 248 259 195 209 120 98 88 54 317 327 192 152 160 188 185 75 160 19 348 23 193 188 169 208 192 193 246 118 116 108 139 177 166 155 158 156 157 157 154 158 142 134 148 157 156 161 168 172 173 162 164 167 170 174 173 166 167 172 174 174 175 169 164 157 159 159 153 149 151 154 159 161 155 147 148 148 149 151 151 152 170 170 171
14 305 293 59 341 302 237 88 149 125 74 358 318 143 15 228 95 15 322 70 84 176 143 119 181 158 183 118 102 92 120 92 127 158 172 157 156 162 161 161 159 152 149 136 147 153 159 162 167 171 173 167 168 172 176 174 174 171 165 168 163 154 153 149 148 150 152 152 150 150 149 146 146 146 146 149 155 155 155 155 157 160 166 176 175 175
4 295 35 77 31 341 13 90 65 17 357 339 327 163 80 36 24 351 316 106 88 26 46 74 78 137 144 130 121 96 68 95 121 151 157 153 158 161 157 157 155 143 139 144 149 152 159 163 167 169 168 169 171 174 174 177 179 175 176 178 159 151 145 141 140 139 138 137 140 142 146 147 147 145 148 152 153 154 153 156 159 164 172 179 181 179
38 17 0 347 7 358 27 33 24 18 24 306 16 39 64 35 46 347 2 39 29 47 2 63 72 101 122 123 126 112 106 126 135 146 157 155 160 161 157 158 154 135 147 152 163 162 169 164 165 167 163 162 170 173 175 173 160 159 175 171 157 152 150 149 149 148 145 142 135 131 133 138 143 146 149 152 153 153 160 163 165 170 178 185 188 186
104 352 334 277 33 67 76 93 196 16 352 286 54 49 45 44 41 23 21 26 38 36 35 43 46 100 122 137 137 112 126 142 144 149 152 154 161 156 150 145 144 146 158 159 161 168 174 160 157 160 160 166 171 172 172 173 166 164 169 160 161 162 161 159 158 158 158 151 145 140 140 142 150 155 154 155 163 167 170 168 168 173 179 185 191 192
117 251 279 287 356 311 69 42 112 43 280 345 358 20 65 39 42 26 20 23 24 28 34 46 55 61 106 125 119 144 144 163 144 152 146 150 163 156 161 152 146 152 164 164 156 175 168 161 164 162 159 166 170 172 175 180 178 173 169 167 169 167 171 170 163 159 156 153 148 145 146 144 148 157 165 172 176 178 174 173 177 181 182 186 192 197
122 56 282 315 287 318 75 113 37 167 34 319 71 41 51 14 42 41 44 32 23 31 35 30 53 83 91 99 117 140 126 140 143 147 155 154 158 160 159 159 147 142 155 166 159 188 171 160 168 163 164 165 167 172 177 179 178 179 177 169 172 174 174 178 167 158 155 150 146 145 149 153 161 168 175 179 180 178 178 181 187 187 185 186 193 200
220 254 280 305 285 58 126 78 22 297 109 316 31 46 48 27 45 47 50 47 35 35 38 42 33 39 48 67 54 102 114 107 121 139 150 150 155 162 160 149 149 152 159 156 162 195 173 165 160 164 161 163 173 172 174 179 174 171 173 169 163 174 170 177 167 156 150 148 147 147 153 157 165 166 169 172 177 179 188 191 194 188 187 189 195 203
274 330 358 304 263 227 71 170 357 289 151 345 122 44 44 56 74 59 44 44 46 43 39 42 48 41 47 39 43 74 102 109 114 128 141 153 159 165 154 157 158 162 164 164 166 180 159 164 162 164 169 167 170 171 173 180 174 165 168 161 165 171 171 173 174 169 152 154 156 157 160 166 169 175 174 172 176 166 162 41 50 174 196 194 131 71
310 60 209 139 98 330 17 117 202 213 162 167 264 22 350 51 64 60 49 42 29 38 46 51 54 60 51 44 36 48 81 111 120 125 128 141 161 157 156 157 167 163 167 161 167 178 169 164 164 164 169 171 168 170 174 175 175 157 161 169 172 174 173 172 172 169 156 156 164 159 162 163 171 170 171 175 178 172 184 166 115 51 36 29 139 100